This demonstration page uses our WeatherBlox Daily Observations layout. Learn more.

Left ArrowRight Arrow

39.01783, -85.05884

Hourly Observations for August 11, 2022

Temp ( °F °C ) Dew Point ( °F °C ) Humidity (%) Winds ( mph kmh ) Pressure ( in mb ) Visibility ( mi km ) Precip ( " mm )
12:52 am 00:52 Clear 70 21.1 67 19.4 90 90 NNW 7 11 30.08 1019 10 16 0.00 0.00
1:52 am 01:52 Clear 69 20.6 67 19.4 93 93 NNW 3 6 30.07 1018 9 14 0.00 0.00
2:52 am 02:52 Clear 68 20 66 18.9 93 93 NNW 6 9 30.07 1018 9 14 0.00 0.00
3:52 am 03:52 Mostly Clear 67 19.4 66 18.9 97 97 NNW 5 7 30.08 1019 7 11 0.00 0.00
4:52 am 04:52 Clear 65 18.3 65 18.3 100 100 Calm 30.08 1019 8 13 0.00 0.00
5:52 am 05:52 Mostly Clear 67 19.4 63 17.2 87 87 NNW 3 6 30.07 1018 10 16 0.00 0.00
6:52 am 06:52 Sunny 64 17.8 62 16.7 93 93 Calm 30.08 1019 7 11 0.00 0.00
7:52 am 07:52 Sunny 67 19.4 64 17.8 90 90 NW 5 7 30.09 1019 7 11 0.00 0.00
8:52 am 08:52 Sunny 71 21.7 65 18.3 81 81 N 7 11 30.09 1019 9 14 0.00 0.00
9:52 am 09:52 Sunny 74 23.3 65 18.3 74 74 N 10 17 30.10 1019 10 16 0.00 0.00
10:52 am 10:52 Mostly Sunny 77 25 64 17.8 64 64 NNW 8 13 30.10 1019 10 16 0.00 0.00
11:52 am 11:52 Mostly Sunny 78 25.6 63 17.2 60 60 NNW 6 9 30.09 1019 10 16 0.00 0.00
12:52 pm 12:52 Mostly Sunny 80 26.7 63 17.2 56 56 N 8 13 30.09 1019 10 16 0.00 0.00
1:52 pm 13:52 Mostly Sunny 81 27.2 63 17.2 54 54 N 7 11 30.08 1019 10 16 0.00 0.00
2:52 pm 14:52 Mostly Sunny 83 28.3 66 18.9 57 57 N 10 17 30.06 1018 10 16 0.00 0.00
3:52 pm 15:52 Partly Cloudy 83 28.3 65 18.3 55 55 N 8 13 30.04 1017 10 16 0.00 0.00
4:52 pm 16:52 Partly Cloudy 83 28.3 66 18.9 57 57 NW 5 7 30.02 1017 10 16 0.00 0.00
5:52 pm 17:52 Mostly Cloudy 82 27.8 67 19.4 60 60 NNW 10 17 30.02 1017 10 16 0.00 0.00
6:52 pm 18:52 Mostly Cloudy 81 27.2 68 20 65 65 N 6 9 30.01 1016 10 16 0.00 0.00
7:39 pm 19:39 Mostly Cloudy with Thunderstorms 81 27.2 67 19.4 62 62 NNW 8 13 30.01 1016 10 16 0.00 0.00
7:55 pm 19:55 Cloudy with Strong Thunderstorms 74 23.3 71 21.7 91 91 NNW 18 30 30.03 1017 3 4 0.00 0.00
7:59 pm 19:59 Cloudy with Thunderstorms 72 22.2 70 21.1 93 93 NNW 15 24 30.04 1017 4 6 0.05 1.27
8:10 pm 20:10 Cloudy with Light Rain 72 22.2 70 21.1 93 93 NW 7 11 30.03 1017 8 13 0.08 2.03
8:52 pm 20:52 Mostly Cloudy 73 22.8 69 20.6 87 87 NNW 7 11 30.04 1017 9 14 0.08 2.03
9:52 pm 21:52 Mostly Clear 71 21.7 69 20.6 93 93 N 9 15 30.06 1018 8 13 0.00 0.00
10:52 pm 22:52 Partly Cloudy 72 22.2 66 18.9 82 82 N 12 19 30.07 1018 10 16 0.00 0.00
11:52 pm 23:52 Mostly Clear 72 22.2 63 17.2 73 73 NNE 9 15 30.08 1019 10 16 0.00 0.00

Powered by AerisWeather